King Salmon, AK

9:22 AM AKDT on July 20, 2017 (GMT -0800)
King Salmon

Weather History for PAKN - March, 2013

Change the Weather History Date:

Saturday, March 2, 2013

  Actual Average Record
Temperature  
Mean Temperature 14 °F 21 °F  
Max Temperature 36 °F 30 °F 51 °F (2003)
Min Temperature -8 °F 13 °F -25 °F (1994)
Degree Days  
Heating Degree Days 51 44  
Month to date heating degree days 107 88  
Since 1 July heating degree days 7963 7708  
Cooling Degree Days 0 0  
Month to date cooling degree days 0 0  
Year to date cooling degree days 0 0  
Moisture  
Dew Point 9 °F    
Average Humidity 0    
Maximum Humidity 0    
Minimum Humidity 0    
Precipitation  
Precipitation T in 0.03 in 0.83 in (1949)
Month to date precipitation T 0.05  
Year to date precipitation 4.33 1.83  
Snow  
Snow 0.00 in 0.30 in - ()
Month to date snowfall T 0.5  
Since 1 July snowfall 62.4 36.0  
Snow Depth 7.00 in    
Sea Level Pressure  
Sea Level Pressure 29.75 in    
Wind  
Wind Speed 11 mph (ENE)    
Max Wind Speed 37 mph    
Max Gust Speed 49 mph    
Visibility 10 miles    
Events Rain , Snow    
T = Trace of Precipitation, MM = Missing Value Source: NWS Daily Summary

Daily Weather History Graph

Daily Weather History Graph

Search for Another Location

Airport or City:

Trip Planner

Search our weather history database for the weather conditions in past years. The results will help you decide how hot, cold, wet, or windy it might be!

Date:

Astronomy

Mar. 02, 2013 Rise Set
Actual Time 8:18 AM AKST 7:00 PM AKST
Civil Twilight 7:38 AM AKST 7:40 PM AKST
Nautical Twilight 6:52 AM AKST 8:26 PM AKST
Astronomical Twilight 6:04 AM AKST 9:13 PM AKST
Moon 1:02 AM AKST (3/2) 9:32 AM AKST (3/2)
Length of Visible Light 12h 02m
Length of Day
10h 41m
Waning Gibbous, 72% of the Moon is Illuminated
Mar 2
Waning Gibbous
Mar 4
Last Quarter
Mar 11
New
Mar 19
First Quarter
Mar 27
Full

Hourly Weather History & Observations

Time (AKST) Temp. Windchill Dew Point Humidity Pressure Visibility Wind Dir Wind Speed Gust Speed Precip Events Conditions
12:54 AM -5.1 °F - -8.0 °F 87% 29.86 in 10.0 mi Calm Calm - N/A   Partly Cloudy
1:54 AM -4.0 °F -12.4 °F -8.0 °F 83% 29.86 in 10.0 mi NNE 3.5 mph - N/A   Partly Cloudy
2:54 AM -5.1 °F - -9.9 °F 80% 29.86 in 10.0 mi Calm Calm - N/A   Partly Cloudy
3:54 AM -7.1 °F - -11.0 °F 83% 29.85 in 10.0 mi Calm Calm - N/A   Partly Cloudy
4:54 AM -2.9 °F -21.6 °F -6.0 °F 87% 29.83 in 10.0 mi NNE 12.7 mph - N/A   Partly Cloudy
5:54 AM 3.9 °F -5.3 °F 1.0 °F 88% 29.83 in 10.0 mi NNE 4.6 mph - N/A   Mostly Cloudy
6:54 AM -0.0 °F -13.0 °F -4.0 °F 83% 29.80 in 10.0 mi NE 6.9 mph - N/A   Mostly Cloudy
7:54 AM -2.9 °F -11.2 °F -6.0 °F 87% 29.78 in 10.0 mi West 3.5 mph - N/A   Scattered Clouds
8:54 AM -2.9 °F -11.2 °F -7.1 °F 82% 29.79 in 10.0 mi NNE 3.5 mph - N/A   Scattered Clouds
9:54 AM 3.0 °F -4.4 °F -0.0 °F 87% 29.79 in 10.0 mi North 3.5 mph - N/A   Partly Cloudy
10:54 AM 6.1 °F -2.8 °F 1.9 °F 83% 29.77 in 10.0 mi North 4.6 mph - N/A   Partly Cloudy
11:54 AM 15.1 °F - 10.0 °F 80% 29.76 in 10.0 mi Calm Calm - N/A   Mostly Cloudy
12:54 PM 16.0 °F - 9.0 °F 74% 29.75 in 10.0 mi Calm Calm - N/A   Mostly Cloudy
1:54 PM 25.0 °F 20.7 °F 14.0 °F 63% 29.72 in 10.0 mi NNW 3.5 mph - N/A   Overcast
2:54 PM 27.0 °F - 16.0 °F 63% 29.69 in 10.0 mi Calm Calm - N/A   Mostly Cloudy
3:54 PM 33.1 °F 23.9 °F 23.0 °F 66% 29.68 in 10.0 mi East 12.7 mph - N/A   Mostly Cloudy
4:54 PM 34.0 °F 21.0 °F 25.0 °F 70% 29.65 in 10.0 mi East 26.5 mph 35.7 mph N/A   Mostly Cloudy
5:54 PM 34.0 °F 21.8 °F 25.0 °F 70% 29.65 in 10.0 mi East 23.0 mph 31.1 mph N/A   Overcast
6:54 PM 35.1 °F 23.0 °F 25.0 °F 67% 29.65 in 10.0 mi East 24.2 mph 32.2 mph N/A   Overcast
7:54 PM 35.1 °F 24.1 °F 26.1 °F 70% 29.66 in 10.0 mi East 19.6 mph 39.1 mph N/A   Overcast
8:54 PM 35.1 °F 22.0 °F 26.1 °F 70% 29.66 in 10.0 mi East 28.8 mph 42.6 mph N/A   Overcast
9:54 PM 35.1 °F 21.4 °F 27.0 °F 72% 29.65 in 10.0 mi East 32.2 mph 42.6 mph N/A   Overcast
10:54 PM 36.0 °F 22.6 °F 27.0 °F 70% 29.66 in 6.0 mi East 32.2 mph 42.6 mph 0.00 in Rain , Snow Light Rain
11:54 PM 34.0 °F 22.7 °F 27.0 °F 75% 29.68 in 10.0 mi East 19.6 mph 26.5 mph 0.00 in   Overcast